FW6320 Weather Reports


Display with metric or nautical units.
time (UTC)temp
F
wind
direction
speed
MPH
gust
MPH
rain 1hr
in
rain 24hr
in
rain mn
in
humidity
%
barometer
mb
20260903205525 93 123 6.0 14.0 0.00 0.00 0.00 61 1011.1
20260903205024 94 137 6.0 14.0 0.00 0.00 0.00 60 1011.1
20260903204546 93 112 6.0 18.0 0.00 0.00 0.00 61 1011.2
20260903204022 93 146 7.0 18.0 0.00 0.00 0.00 61 1011.2
20260903203525 94 144 5.0 13.0 0.00 0.00 0.00 60 1011.3
20260903203044 93 152 6.0 13.0 0.00 0.00 0.00 59 1011.4
20260903202520 94 141 5.0 12.0 0.00 0.00 0.00 61 1011.5
20260903202025 93 170 6.0 17.0 0.00 0.00 0.00 61 1011.5
20260903201549 93 148 5.0 17.0 0.00 0.00 0.00 61 1011.6
20260903201023 92 120 9.0 17.0 0.00 0.00 0.00 62 1011.5
20260903200525 92 125 4.0 15.0 0.00 0.00 0.00 62 1011.6
20260903200043 91 90 6.0 15.0 0.00 0.00 0.00 64 1011.4
20260903195525 90 158 3.0 15.0 0.00 0.00 0.00 64 1011.6
20260903195025 90 162 7.0 15.0 0.00 0.00 0.00 64 1011.7
20260903194549 91 115 6.0 16.0 0.00 0.00 0.00 64 1011.7
20260903194017 92 135 5.0 16.0 0.00 0.00 0.00 63 1011.7
20260903193521 92 134 3.0 12.0 0.00 0.00 0.00 62 1011.9
20260903193053 92 167 4.0 13.0 0.00 0.00 0.00 61 1011.9
20260903192523 91 192 7.0 14.0 0.00 0.00 0.00 62 1012.0
20260903192023 92 165 5.0 14.0 0.00 0.00 0.00 62 1012.1
20260903191546 92 166 6.0 14.0 0.00 0.00 0.00 63 1012.1
20260903191024 92 118 5.0 15.0 0.00 0.00 0.00 62 1012.2
20260903190518 92 164 5.0 15.0 0.00 0.00 0.00 62 1012.4
20260903190055 91 142 8.0 15.0 0.00 0.00 0.00 63 1012.4
20260903185523 92 146 3.0 10.0 0.00 0.00 0.00 61 1012.5
20260903185025 93 138 3.0 9.0 0.00 0.00 0.00 61 1012.6
20260903184541 92 184 3.0 10.0 0.00 0.00 0.00 62 1012.6
20260903184026 90 144 4.0 13.0 0.00 0.00 0.00 64 1012.6
20260903183527 91 154 7.0 13.0 0.00 0.00 0.00 62 1012.8
20260903183048 92 148 5.0 12.0 0.00 0.00 0.00 61 1012.9
20260903182522 91 126 4.0 13.0 0.00 0.00 0.00 64 1012.9
20260903182023 90 137 5.0 13.0 0.00 0.00 0.00 64 1012.9
20260903181548 90 130 6.0 13.0 0.00 0.00 0.00 65 1013.0
20260903181021 90 119 7.0 13.0 0.00 0.00 0.00 64 1013.0
20260903180521 90 145 6.0 13.0 0.00 0.00 0.00 65 1013.1
20260903180049 90 161 5.0 12.0 0.00 0.00 0.00 66 1013.2
20260903175518 90 181 7.0 12.0 0.00 0.00 0.00 66 1013.3
20260903175024 90 163 5.0 10.0 0.00 0.00 0.00 66 1013.2
20260903174540 89 110 3.0 9.0 0.00 0.00 0.00 68 1013.3
20260903174025 88 154 3.0 12.0 0.00 0.00 0.00 68 1013.4
20260903173524 88 136 5.0 14.0 0.00 0.00 0.00 69 1013.5
20260903173051 88 163 5.0 14.0 0.00 0.00 0.00 69 1013.5
20260903172525 88 128 5.0 12.0 0.00 0.00 0.00 68 1013.6
20260903172023 88 0 2.0 14.0 0.00 0.00 0.00 69 1013.6
20260903171543 88 193 5.0 14.0 0.00 0.00 0.00 68 1013.6
20260903171019 89 200 3.0 10.0 0.00 0.00 0.00 67 1013.6
20260903170521 88 138 4.0 14.0 0.00 0.00 0.00 69 1013.7
20260903170053 87 146 6.0 14.0 0.00 0.00 0.00 70 1013.6
20260903165521 87 137 5.0 13.0 0.00 0.00 0.00 70 1013.7
20260903165021 87 190 4.0 11.0 0.00 0.00 0.00 70 1013.7
20260903164549 87 142 3.0 16.0 0.00 0.00 0.00 70 1013.8
20260903164025 87 155 8.0 16.0 0.00 0.00 0.00 69 1013.8
20260903163526 87 146 4.0 15.0 0.00 0.00 0.00 69 1013.7
20260903163059 87 140 5.0 13.0 0.00 0.00 0.00 70 1013.7
20260903162522 86 155 3.0 13.0 0.00 0.00 0.00 70 1013.8
20260903162023 86 182 7.0 14.0 0.00 0.00 0.00 72 1013.9
20260903161542 86 140 5.0 14.0 0.00 0.00 0.00 72 1013.9
20260903161022 85 0 4.0 10.0 0.00 0.00 0.00 74 1013.8
20260903160523 85 144 5.0 10.0 0.00 0.00 0.00 73 1013.8
20260903160042 85 126 4.0 10.0 0.00 0.00 0.00 73 1013.9
20260903155520 84 148 3.0 8.0 0.00 0.00 0.00 74 1013.8
20260903155021 84 171 1.0 11.0 0.00 0.00 0.00 75 1013.8
20260903154542 83 136 2.0 11.0 0.00 0.00 0.00 76 1013.9
20260903154022 82 140 7.0 12.0 0.00 0.00 0.00 77 1013.9
20260903153523 82 140 5.0 12.0 0.00 0.00 0.00 77 1013.9
20260903153040 82 146 5.0 12.0 0.00 0.00 0.00 76 1013.7
20260903152526 83 153 5.0 13.0 0.00 0.00 0.00 75 1013.8
20260903152025 83 155 4.0 13.0 0.00 0.00 0.00 75 1013.8
20260903151542 83 143 5.0 12.0 0.00 0.00 0.00 76 1013.8
20260903151021 82 186 4.0 12.0 0.00 0.00 0.00 77 1013.8
20260903150524 82 107 5.0 12.0 0.00 0.00 0.00 77 1013.8
20260903150105 82 125 6.0 14.0 0.00 0.00 0.00 78 1013.9
20260903145518 81 130 9.0 14.0 0.00 0.00 0.00 79 1014.0
20260903145018 81 125 5.0 13.0 0.00 0.00 0.00 79 1014.0
20260903144541 80 125 6.0 12.0 0.00 0.00 0.00 79 1014.0
20260903144021 80 143 6.0 13.0 0.00 0.00 0.00 80 1013.9
20260903143520 80 148 6.0 13.0 0.00 0.00 0.00 80 1014.0
20260903143044 79 140 8.0 12.0 0.00 0.00 0.00 80 1013.9
20260903142524 80 127 8.0 12.0 0.00 0.00 0.00 79 1014.0
20260903142024 80 138 3.0 10.0 0.00 0.00 0.00 79 1013.9
20260903141552 80 144 3.0 8.0 0.00 0.00 0.00 79 1013.8
20260903141025 80 150 3.0 8.0 0.00 0.00 0.00 78 1013.8
20260903140523 80 138 4.0 8.0 0.00 0.00 0.00 78 1013.8
20260903140047 80 118 4.0 8.0 0.00 0.00 0.00 77 1013.8
20260903135522 80 121 4.0 8.0 0.00 0.00 0.00 77 1013.7
20260903135022 80 138 4.0 8.0 0.00 0.00 0.00 78 1013.8
20260903134541 80 125 4.0 8.0 0.00 0.00 0.00 77 1013.9
20260903134021 80 112 3.0 7.0 0.00 0.00 0.00 78 1013.9
20260903133521 79 150 1.0 5.0 0.00 0.00 0.00 79 1013.8
20260903133040 79 0 0.0 3.0 0.00 0.00 0.00 80 1013.7
20260903132520 78 0 0.0 3.0 0.00 0.00 0.00 81 1013.8
20260903132020 78 0 1.0 4.0 0.00 0.00 0.00 81 1013.9
20260903131549 78 124 1.0 6.0 0.00 0.00 0.00 81 1013.9
20260903131023 78 131 2.0 6.0 0.00 0.00 0.00 81 1014.0
20260903130522 77 138 1.0 5.0 0.00 0.00 0.00 82 1013.8
20260903130043 77 142 2.0 5.0 0.00 0.00 0.00 82 1013.8
20260903125521 76 139 1.0 5.0 0.00 0.00 0.00 83 1013.8
20260903125024 76 0 0.0 0.0 0.00 0.00 0.00 84 1013.8
20260903124540 76 0 0.0 0.0 0.00 0.00 0.00 84 1013.8
20260903124017 76 0 0.0 0.0 0.00 0.00 0.00 84 1013.7
20260903123520 76 0 0.0 0.0 0.00 0.00 0.00 84 1013.6
20260903123041 76 0 0.0 0.0 0.00 0.00 0.00 84 1013.5
20260903122521 76 0 0.0 1.0 0.00 0.00 0.00 84 1013.5
20260903122020 76 0 0.0 2.0 0.00 0.00 0.00 84 1013.6
20260903121547 76 0 0.0 2.0 0.00 0.00 0.00 84 1013.6
20260903121022 76 140 0.0 5.0 0.00 0.00 0.00 84 1013.6
20260903120524 76 140 0.0 5.0 0.00 0.00 0.00 83 1013.5
20260903120042 76 141 3.0 5.0 0.00 0.00 0.00 83 1013.5
20260903115519 76 140 2.0 7.0 0.00 0.00 0.00 83 1013.5
20260903115020 76 0 2.0 7.0 0.00 0.00 0.00 84 1013.5
20260903114559 76 136 3.0 7.0 0.00 0.00 0.00 84 1013.5
20260903114019 76 0 0.0 0.0 0.00 0.00 0.00 84 1013.5
20260903113524 75 0 0.0 0.0 0.00 0.00 0.00 84 1013.5
20260903113046 75 0 0.0 0.0 0.00 0.00 0.00 84 1013.4
20260903112524 75 0 0.0 0.0 0.00 0.00 0.00 84 1013.5
20260903112026 76 0 0.0 0.0 0.00 0.00 0.00 84 1013.3
20260903111548 76 0 0.0 0.0 0.00 0.00 0.00 84 1013.3
20260903111025 76 0 0.0 0.0 0.00 0.00 0.00 84 1013.2
20260903110520 76 0 0.0 0.0 0.00 0.00 0.00 83 1013.3
20260903110045 76 0 0.0 0.0 0.00 0.00 0.00 83 1013.1
20260903105518 76 0 0.0 0.0 0.00 0.00 0.00 83 1013.1
20260903105020 76 0 0.0 0.0 0.00 0.00 0.00 83 1013.2
20260903104548 76 0 0.0 0.0 0.00 0.00 0.00 83 1013.2
20260903104023 76 0 0.0 0.0 0.00 0.00 0.00 83 1013.2
20260903103520 76 0 0.0 0.0 0.00 0.00 0.00 83 1013.1
20260903103053 76 0 0.0 0.0 0.00 0.00 0.00 83 1013.3
20260903102523 76 0 0.0 0.0 0.00 0.00 0.00 84 1013.4
20260903102022 76 0 0.0 0.0 0.00 0.00 0.00 84 1013.4
20260903101547 76 0 0.0 0.0 0.00 0.00 0.00 84 1013.4
20260903101021 75 0 0.0 0.0 0.00 0.00 0.00 84 1013.3
20260903100522 75 0 0.0 0.0 0.00 0.00 0.00 83 1013.4
20260903100044 75 0 0.0 0.0 0.00 0.00 0.00 83 1013.4
20260903095520 75 0 0.0 0.0 0.00 0.00 0.00 83 1013.4
20260903095024 75 0 0.0 0.0 0.00 0.00 0.00 83 1013.2
20260903094546 76 0 0.0 0.0 0.00 0.00 0.00 83 1013.4
20260903094020 76 0 0.0 0.0 0.00 0.00 0.00 83 1013.3
20260903093527 76 0 0.0 0.0 0.00 0.00 0.00 83 1013.3
20260903093120 76 0 0.0 0.0 0.00 0.00 0.00 82 1013.2
20260903092524 76 0 0.0 0.0 0.00 0.00 0.00 82 1013.2
20260903092023 76 0 0.0 0.0 0.00 0.00 0.00 82 1013.1
20260903091551 76 0 0.0 0.0 0.00 0.00 0.00 82 1013.3
20260903091021 76 0 0.0 0.0 0.00 0.00 0.00 82 1013.4
20260903090523 76 0 0.0 0.0 0.00 0.00 0.00 82 1013.3
20260903090044 76 0 0.0 0.0 0.00 0.00 0.00 82 1013.4
20260903085517 76 0 0.0 0.0 0.00 0.00 0.00 81 1013.3
20260903085020 76 0 0.0 0.0 0.00 0.00 0.00 80 1013.2
20260903084542 77 0 0.0 0.0 0.00 0.00 0.00 80 1013.2
20260903084020 77 0 0.0 0.0 0.00 0.00 0.00 80 1013.1
20260903083520 77 0 0.0 0.0 0.00 0.00 0.00 79 1013.1
20260903083041 77 0 0.0 0.0 0.00 0.00 0.00 79 1013.2
20260903082522 77 0 0.0 0.0 0.00 0.00 0.00 79 1013.3
20260903082023 77 0 0.0 0.0 0.00 0.00 0.00 79 1013.1
20260903081545 77 0 0.0 0.0 0.00 0.00 0.00 79 1013.3
20260903081025 77 0 0.0 0.0 0.00 0.00 0.00 79 1013.3
20260903080527 78 0 0.0 0.0 0.00 0.00 0.00 78 1013.3
20260903080043 78 0 0.0 0.0 0.00 0.00 0.00 78 1013.4
20260903075519 78 0 0.0 0.0 0.00 0.00 0.00 78 1013.3
20260903075021 78 0 0.0 0.0 0.00 0.00 0.00 78 1013.1
20260903074544 78 0 0.0 0.0 0.00 0.00 0.00 77 1013.2
20260903074017 78 0 0.0 0.0 0.00 0.00 0.00 77 1013.2
20260903073520 78 0 0.0 0.0 0.00 0.00 0.00 77 1013.2
20260903073042 78 0 0.0 0.0 0.00 0.00 0.00 76 1013.2
20260903072521 79 0 0.0 0.0 0.00 0.00 0.00 76 1013.3
20260903072025 79 0 0.0 0.0 0.00 0.00 0.00 76 1013.2
20260903071555 79 0 0.0 0.0 0.00 0.00 0.00 76 1013.3
20260903071022 79 0 0.0 0.0 0.00 0.00 0.00 76 1013.4
20260903070526 79 0 0.0 4.0 0.00 0.00 0.00 76 1013.4
20260903070058 79 0 0.0 7.0 0.00 0.00 0.00 75 1013.4
20260903065518 79 101 2.0 7.0 0.00 0.00 0.00 75 1013.4
20260903065020 80 0 0.0 4.0 0.00 0.00 0.00 75 1013.5
20260903064549 80 0 0.0 8.0 0.00 0.00 0.00 74 1013.6
20260903064024 80 0 0.0 12.0 0.00 0.00 0.00 74 1013.6
20260903063526 80 112 5.0 12.0 0.00 0.00 0.00 74 1013.7
20260903063048 80 152 5.0 11.0 0.00 0.00 0.00 73 1013.7
20260903062524 81 124 4.0 11.0 0.00 0.00 0.00 72 1013.8
20260903062024 81 140 4.0 10.0 0.00 0.00 0.00 72 1013.7
20260903061543 81 117 4.0 9.0 0.00 0.00 0.00 71 1013.7
20260903061029 81 111 2.0 9.0 0.00 0.00 0.00 70 1013.8
20260903060525 81 123 3.0 8.0 0.00 0.00 0.00 70 1013.8
20260903060051 81 113 3.0 8.0 0.00 0.00 0.00 70 1013.8
20260903055525 82 99 2.0 6.0 0.00 0.00 0.00 69 1013.7
20260903055025 82 0 1.0 7.0 0.00 0.00 0.00 69 1013.8
20260903054550 82 120 2.0 7.0 0.00 0.00 0.00 68 1013.7
20260903054025 82 0 2.0 7.0 0.00 0.00 0.00 68 1013.8
20260903053528 82 116 0.0 7.0 0.00 0.00 0.00 68 1013.7
20260903053047 82 128 3.0 9.0 0.00 0.00 0.00 68 1013.7
20260903052524 83 131 3.0 9.0 0.00 0.00 0.00 67 1013.7
20260903052022 83 116 2.0 10.0 0.00 0.00 0.00 66 1013.8
20260903051545 83 119 5.0 11.0 0.00 0.00 0.00 66 1013.7
20260903051022 83 116 4.0 11.0 0.00 0.00 0.00 66 1013.7
20260903050523 83 109 5.0 10.0 0.00 0.00 0.00 65 1013.7
20260903050056 84 121 5.0 11.0 0.00 0.00 0.00 65 1013.6
20260903045524 84 114 5.0 11.0 0.00 0.00 0.00 65 1013.7
20260903045022 84 95 3.0 8.0 0.00 0.00 0.00 64 1013.7
20260903044558 84 97 3.0 10.0 0.00 0.00 0.00 64 1013.6
20260903044024 85 117 3.0 12.0 0.00 0.00 0.00 64 1013.6
20260903043525 85 103 7.0 12.0 0.00 0.00 0.00 64 1013.6
20260903043046 85 109 6.0 12.0 0.00 0.00 0.00 64 1013.6
20260903042526 85 138 6.0 12.0 0.00 0.00 0.00 63 1013.7
20260903042022 86 138 6.0 11.0 0.00 0.00 0.00 63 1013.6
20260903041548 86 129 7.0 12.0 0.00 0.00 0.00 62 1013.6
20260903041024 86 142 8.0 12.0 0.00 0.00 0.00 62 1013.6
20260903040521 86 109 4.0 10.0 0.00 0.00 0.00 61 1013.6
20260903040050 87 130 4.0 12.0 0.00 0.00 0.00 60 1013.7
20260903035523 87 121 4.0 12.0 0.00 0.00 0.00 60 1013.6
20260903035023 87 137 5.0 12.0 0.00 0.00 0.00 59 1013.7
20260903034547 87 122 7.0 12.0 0.00 0.00 0.00 59 1013.6
20260903034023 87 121 6.0 11.0 0.00 0.00 0.00 58 1013.6
20260903033523 88 144 6.0 11.0 0.00 0.00 0.00 58 1013.6
20260903033043 88 0 4.0 9.0 0.00 0.00 0.00 58 1013.6
20260903032523 88 107 4.0 9.0 0.00 0.00 0.00 57 1013.5
20260903032023 88 106 2.0 9.0 0.00 0.00 0.00 57 1013.5
20260903031541 88 143 4.0 11.0 0.00 0.00 0.00 57 1013.5
20260903031025 88 118 4.0 11.0 0.00 0.00 0.00 57 1013.5
20260903030529 88 115 5.0 11.0 0.00 0.00 0.00 57 1013.3
20260903030041 88 126 5.0 9.0 0.00 0.00 0.00 57 1013.3
20260903025525 89 110 3.0 8.0 0.00 0.00 0.00 57 1013.2
20260903025024 89 126 3.0 8.0 0.00 0.00 0.00 56 1013.2
20260903024546 89 103 3.0 8.0 0.00 0.00 0.00 56 1013.1
20260903024024 89 111 2.0 8.0 0.00 0.00 0.00 56 1013.0
20260903023523 89 112 2.0 8.0 0.00 0.00 0.00 56 1013.0
20260903023046 90 110 3.0 9.0 0.00 0.00 0.00 56 1013.0
20260903022518 90 88 3.0 9.0 0.00 0.00 0.00 56 1013.0
20260903022024 90 126 4.0 9.0 0.00 0.00 0.00 55 1012.8
20260903021541 90 135 4.0 8.0 0.00 0.00 0.00 55 1012.7
20260903021024 90 140 5.0 8.0 0.00 0.00 0.00 55 1012.5
20260903020524 90 111 3.0 10.0 0.00 0.00 0.00 55 1012.5
20260903020041 90 119 4.0 10.0 0.00 0.00 0.00 55 1012.4
20260903015521 90 112 4.0 7.0 0.00 0.00 0.00 55 1012.4
20260903015025 90 113 4.0 9.0 0.00 0.00 0.00 55 1012.1
20260903014557 91 147 3.0 10.0 0.00 0.00 0.00 54 1012.1
20260903014027 91 115 5.0 14.0 0.00 0.00 0.00 54 1012.0
20260903013521 91 120 6.0 14.0 0.00 0.00 0.00 54 1012.0
20260903013045 91 120 4.0 12.0 0.00 0.00 0.00 54 1012.0
20260903012525 91 150 5.0 12.0 0.00 0.00 0.00 53 1011.9
20260903012025 92 92 6.0 13.0 0.00 0.00 0.00 53 1011.9
20260903011550 92 145 7.0 13.0 0.00 0.00 0.00 52 1011.8
20260903011027 92 119 5.0 14.0 0.00 0.00 0.00 52 1011.7
20260903010524 93 107 8.0 14.0 0.00 0.00 0.00 50 1011.7
20260903010047 93 122 5.0 11.0 0.00 0.00 0.00 48 1011.7
20260903005523 94 100 5.0 11.0 0.00 0.00 0.00 47 1011.6
20260903005025 94 117 4.0 11.0 0.00 0.00 0.00 47 1011.6
20260903004552 94 98 3.0 10.0 0.00 0.00 0.00 46 1011.6
20260903004027 94 107 3.0 14.0 0.00 0.00 0.00 46 1011.6
20260903003524 95 69 6.0 14.0 0.00 0.00 0.00 45 1011.5
20260903003057 95 98 4.0 9.0 0.00 0.00 0.00 45 1011.5
20260903002520 95 115 4.0 10.0 0.00 0.00 0.00 45 1011.5
20260903002026 95 109 4.0 12.0 0.00 0.00 0.00 44 1011.6
20260903001542 95 109 7.0 13.0 0.00 0.00 0.00 44 1011.7
20260903001024 96 101 6.0 13.0 0.00 0.00 0.00 44 1011.6
20260903000524 96 92 6.0 12.0 0.00 0.00 0.00 44 1011.7
20260903000049 96 56 8.0 12.0 0.00 0.00 0.00 43 1011.6
20260902235521 96 85 7.0 12.0 0.00 0.00 0.00 44 1011.5
20260902235020 96 124 4.0 12.0 0.00 0.00 0.00 44 1011.6
20260902234551 96 86 6.0 11.0 0.00 0.00 0.00 44 1011.6
20260902234022 96 86 5.0 12.0 0.00 0.00 0.00 44 1011.7
20260902233523 96 96 5.0 12.0 0.00 0.00 0.00 44 1011.7
20260902233044 97 109 6.0 12.0 0.00 0.00 0.00 44 1011.7
20260902232524 97 98 5.0 12.0 0.00 0.00 0.00 44 1011.6
20260902232020 97 55 4.0 11.0 0.00 0.00 0.00 44 1011.5
20260902231548 97 93 6.0 13.0 0.00 0.00 0.00 44 1011.5
20260902231024 97 75 5.0 13.0 0.00 0.00 0.00 43 1011.6
20260902230526 97 117 4.0 12.0 0.00 0.00 0.00 43 1011.6
20260902230047 97 84 6.0 13.0 0.00 0.00 0.00 43 1011.6
20260902225524 97 136 4.0 13.0 0.00 0.00 0.00 43 1011.6
20260902225027 97 98 6.0 12.0 0.00 0.00 0.00 44 1011.7
20260902224606 97 103 4.0 12.0 0.00 0.00 0.00 44 1011.7
20260902224027 97 86 4.0 12.0 0.00 0.00 0.00 43 1011.7
20260902223522 97 72 4.0 12.0 0.00 0.00 0.00 43 1011.7
20260902223057 98 92 5.0 12.0 0.00 0.00 0.00 42 1011.7
20260902222521 98 53 4.0 15.0 0.00 0.00 0.00 43 1011.8
20260902222024 97 44 6.0 15.0 0.00 0.00 0.00 43 1011.8
20260902221543 98 65 4.0 11.0 0.00 0.00 0.00 44 1011.9
20260902221024 97 113 5.0 12.0 0.00 0.00 0.00 44 1011.9
20260902220524 97 150 5.0 12.0 0.00 0.00 0.00 44 1012.0
20260902220040 98 104 5.0 12.0 0.00 0.00 0.00 43 1012.1
20260902215524 98 139 4.0 11.0 0.00 0.00 0.00 44 1012.1
20260902215026 98 69 4.0 13.0 0.00 0.00 0.00 42 1012.2
20260902214615 98 63 7.0 13.0 0.00 0.00 0.00 43 1012.3
20260902214023 98 95 4.0 11.0 0.00 0.00 0.00 43 1012.3
20260902213526 98 57 6.0 11.0 0.00 0.00 0.00 43 1012.4
20260902213043 98 73 5.0 13.0 0.00 0.00 0.00 43 1012.4
20260902212521 98 71 7.0 13.0 0.00 0.00 0.00 44 1012.3
20260902212025 98 122 4.0 10.0 0.00 0.00 0.00 43 1012.4
20260902211541 98 36 3.0 10.0 0.00 0.00 0.00 43 1012.4
20260902211018 98 57 4.0 11.0 0.00 0.00 0.00 43 1012.3
20260902210522 98 62 4.0 12.0 0.00 0.00 0.00 43 1012.4
20260902210046 98 48 4.0 12.0 0.00 0.00 0.00 43 1012.5